Regional Weather Roundup
Issued by NWS

Home | Current Version | Previous Version | Text Only | Print | Product List | Glossary On
Versions: 1 2 3 4 5 6 7 8 9 10 11 12 13 14 15 16 17 18 19 20 21 22 23 24 25 26 27 28 29 30 31 32 33 34 35 36 37 38 39 40 41 42 43 44 45 46 47 48 49 50
000
ASUS43 KLMK 311810
RWRKY
KENTUCKY REGIONAL WEATHER ROUNDUP
NATIONAL WEATHER SERVICE LOUISVILLE KY
200 PM EDT TUE MAY 31 2016

NOTE "FAIR" INDICATES FEW OR NO CLOUDS BELOW 12,000 FEET
WITH NO SIGNIFICANT WEATHER AND/OR OBSTRUCTIONS TO VISIBILITY.

KYZ001>023-026-027-061>063-070>075-311900-
WESTERN AND SOUTH CENTRAL KENTUCKY

CITY           SKY/WX    TMP DP  RH WIND       PRES   REMARKS
PADUCAH        CLOUDY    85  63  47 SW6       29.96F
HENDERSON      CLOUDY    84  61  45 S10       29.95F
OWENSBORO      CLOUDY    87  64  46 SE9       29.98F
HOPKINSVILLE   PTSUNNY   85  62  45 CALM      29.96F HAZE
BOWLING GREEN  CLOUDY    84  64  50 NE5       29.98F
GLASGOW        CLOUDY    83  60  44 SE3       29.99F
$$

KYZ024-025-028>034-038-045-046-053-311900-
NORTH CENTRAL KENTUCKY

CITY           SKY/WX    TMP DP  RH WIND       PRES   REMARKS
LOUISVILLE/SDF CLOUDY    86  60  41 VRB3      29.98F
LOUISVILLE/LOU CLOUDY    85  60  42 E5        29.99F
FORT KNOX      CLOUDY    82  65  56 SE7       29.99S
$$

KYZ035>037-039>044-047>052-055>060-089>105-311900-
NORTHEAST KENTUCKY

CITY           SKY/WX    TMP DP  RH WIND       PRES   REMARKS
LEXINGTON      CLOUDY    84  59  42 E9        30.01F
COVINGTON      CLOUDY    84  60  44 NW7       29.99F
FRANKFORT      MOSUNNY   86  58  38 E7        29.99F
$$

KYZ054-064>069-076>088-106>120-311900-
SOUTHEAST KENTUCKY

CITY           SKY/WX    TMP DP  RH WIND       PRES   REMARKS
JACKSON        SUNNY     83  61  47 CALM      30.02F
LONDON         MOSUNNY   83  61  47 N6        30.00F
SOMERSET       CLOUDY    82  59  44 E6        30.01S
MIDDLESBORO    PTSUNNY   83  65  54 CALM      29.99F
MONTICELLO     CLOUDY    82  64  54 N6        30.01F
$$





USA.gov is the U.S. government's official web portal to all federal, state and local government web resources and services.